Regional Weather Roundup
Issued by NWS

Home | Current Version | Previous Version | Text Only | Print | Product List | Glossary On
Versions: 1 2 3 4 5 6 7 8 9 10 11 12 13 14 15 16 17 18 19 20 21 22 23 24 25 26 27 28 29 30 31 32 33 34 35 36 37 38 39 40 41 42 43 44 45 46 47 48 49 50
000
ASUS43 KMKX 271911
RWRWI

WISCONSIN REGIONAL WEATHER ROUNDUP
NATIONAL WEATHER SERVICE MILWAUKEE/SULLIVAN WI
100 PM CST THU NOV 27 2014

NOTE: "FAIR" INDICATES FEW OR NO CLOUDS BELOW 12,000 FEET WITH NO
SIGNIFICANT WEATHER AND/OR OBSTRUCTIONS TO VISIBILITY.

WIZ001-002-006>008-014>016-023>028-272000-
NORTHWEST WISCONSIN

CITY           SKY/WX    TMP DP  RH WIND       PRES   REMARKS
SUPERIOR ARPT  SUNNY      9  -4  54 W5        30.44F WCI   1
ASHLAND        PTSUNNY   10   1  67 VRB3      30.42F
HAYWARD        SUNNY      7  -3  64 CALM      30.39F
SIREN          SUNNY      8  -6  52 NW3       30.43F
CUMBERLAND     SUNNY      7  -8  51 W6        30.40F WCI  -3
RICE LAKE      SUNNY      7  -5  58 W3        30.43F
CHETEK         SUNNY      7  -4  59 W5        30.42F WCI  -2
LADYSMITH      SUNNY     10  -1  60 CALM      30.39F
EAU CLAIRE     SUNNY      8  -2  63 W5        30.43F WCI   0
MENOMONIE      SUNNY      9  -5  52 W6        30.45S WCI   0
NEW RICHMOND   SUNNY      8  -4  57 W3        30.45F
OSCEOLA        SUNNY      8  -4  58 NW3       30.49F
$$

WIZ003>005-009-010-017-018-272000-
NORTH CENTRAL WISCONSIN

CITY           SKY/WX    TMP DP  RH WIND       PRES   REMARKS
MANITOWISH WTR CLOUDY     9   1  70 NW10      30.30S WCI  -5
ARBOR VITAE    MOSUNNY   11   3  68 NW7       30.30S WCI   1
WOODRUFF       MOSUNNY   11   3  68 NW7       30.30S WCI   1
RHINELANDER    CLOUDY    10   1  67 VRB5      30.29F WCI   2
EAGLE RIVER    MOSUNNY   11  -1  58 N9        30.28S WCI  -2
LAND O LAKES   CLOUDY    11   3  68 N9        30.29S WCI  -1
PHILLIPS       MOSUNNY    9  -1  65 N3        30.33F
TOMAHAWK       PTSUNNY   12   3  65 NW5       30.32F WCI   4
MEDFORD        SUNNY     10   1  64 NW6       30.33S WCI   1
MERRILL        MOSUNNY   13   1  58 NW8       30.32F WCI   2
$$

WIZ029-030-035-036-043>047-272000-
CENTRAL WISCONSIN

CITY           SKY/WX    TMP DP  RH WIND       PRES   REMARKS
WAUSAU         SUNNY     13   2  61 NW8       30.32F WCI   2
MOSINEE        SUNNY     12   7  79 W8        30.34F WCI   1
MARSHFIELD     SUNNY     10   0  63 W10       30.36S WCI  -4
STEVENS POINT  MOSUNNY   12   2  65 NW9       30.35S WCI   0
WAUPACA        SUNNY     19   8  61 NW9       30.36F WCI   8
WAUTOMA        MOSUNNY   16   7  67 NW8       30.37F WCI   5
WISC RAPIDS    SUNNY     13   3  64 NW5       30.38F WCI   5
CAMP DOUGLAS   SUNNY     14   6  71 W10       30.39F WCI   1
$$

WIZ011>013-019>022-031-037>040-048>050-272000-
NORTHEAST WISCONSIN

CITY           SKY/WX    TMP DP  RH WIND       PRES   REMARKS
ANTIGO         MOSUNNY   11   1  64 N6        30.29S WCI   2
SHAWANO        MOSUNNY   19   4  52 W9        30.34F WCI   8
OCONTO         SUNNY     17   3  53 NW7       30.34F WCI   8
STURGEON BAY   PTSUNNY   18   3  53 N14       30.32S WCI   4
GREEN BAY      SUNNY     18   6  59 NW12      30.35S WCI   5
MANITOWOC      SUNNY     20   9  62 NW14      30.34S WCI   7
APPLETON       PTSUNNY   18   7  62 NW12      30.35S WCI   5
CLINTONVILLE   MOSUNNY   18   5  57 W12       30.35S WCI   5
OSHKOSH        MOSUNNY   17   7  64 MISG      30.35S
$$

WIZ032>034-041-042-053>061-272000-
SOUTHWEST WISCONSIN

CITY           SKY/WX    TMP DP  RH WIND       PRES   REMARKS
LA CROSSE      SUNNY     13   1  59 N10       30.46F WCI   0
SPARTA         SUNNY     13   2  60 NW6       30.43F WCI   4
VIROQUA        SUNNY     12   1  63 W7        30.37F WCI   1
BOSCOBEL       SUNNY     18   2  49 NW8       30.42F WCI   8
PRAIRIE DU CHI SUNNY     16  -2  44 NW8       30.44S WCI   5
PLATTEVILLE    SUNNY     18   3  51 NW9       30.38F WCI   7
$$

WIZ056-057-062-063-064-067-068-272000-
SOUTH CENTRAL WISCONSIN

CITY           SKY/WX    TMP DP  RH WIND       PRES   REMARKS
REEDSBURG      SUNNY     14   6  69 NW5       30.38S WCI   6
BARABOO/DELLS  MOSUNNY   15   7  68 N6        30.37S WCI   7
LONE ROCK      SUNNY     21   6  52 W9        30.40S WCI  11
MINERAL POINT  SUNNY     21   7  53 NW9       30.35F WCI  11
MADISON        MOSUNNY   20   9  62 NW9       30.36F WCI   9
MIDDLETON      SUNNY     21  10  61 NW8       30.36F WCI  12
WATERTOWN      CLOUDY    19  12  75 N9        30.35S WCI   8
MONROE         PTSUNNY   23  14  68 NW7       30.34S WCI  15
JANESVILLE     PTSUNNY   25  12  58 N12G17    30.35S WCI  14
$$

WIZ051-052-058>065-066-070>072-272000-
SOUTHEAST WISCONSIN

CITY           SKY/WX    TMP DP  RH WIND       PRES   REMARKS
MILWAUKEE      CLOUDY    23  13  65 NW13      30.33S WCI  11
WAUKESHA       FLURRIES  18  12  79 NW12      30.34S WCI   5
MILWAUKEE/TIMM CLOUDY    21  12  68 NW12      30.34R WCI   9
RACINE         PTSUNNY   23  14  68 NW9       30.34S WCI  13
BURLINGTON     FLURRIES  19  12  74 NW13      30.34S WCI   6
KENOSHA        CLOUDY    22  14  71 NW14G21   30.33S WCI   9
FOND DU LAC    SUNNY     18   7  62 NW12      30.35S WCI   5
SHEBOYGAN      SUNNY     18   5  57 NW13      30.34R WCI   5
WEST BEND      FLURRIES  19  10  68 N8        30.33S WCI   9
JUNEAU         FLURRIES  18  10  72 NW12      30.35S WCI   5
$$

LSZ147-162-272000-
LAKE SUPERIOR

STATION/POSITION TIME  TEMP    WIND        PRES    WAVE
                       AIR SEA DIR/SP/G            HT/PER
                 (UTC) (F)     (DEG/KT/KT) (MB)    (FT/S)
DEVILS ISLAND    1900   11     320/  8/ 11 1031.7F
PORT WING        1800    8     230/  7/ 10 1031.2
SAXON HARBOR     1800   12     270/  5/  9 1030.1
$$

LMZ867-665-643>646-272000-
LAKE MICHIGAN

STATION/POSITION TIME  TEMP    WIND        PRES    WAVE
                       AIR SEA DIR/SP/G            HT/PER
                 (UTC) (F)     (DEG/KT/KT) (MB)    (FT/S)
CHAMBERS ISLAND  1800   19     310/ 13/ 20 1026.8S
N MID LAKE BUOY  1850   20 42  330/ 19/ 23 1026.3R   4/ 5
NORTHPORT PIER   1809   19     320/ 17/ 23 1026.1F
SISTER BAY       1843           10/ 19/ 25   N/A
ALGOMA LAKESHORE 1828          330/ 14/ 18   N/A
KEWAUNEE LAKESHO 1800   17     310/ 11/ 19 1026.1F
SHEBOYGAN LAKESH 1900   18 35  330/ 15/ 18 1028.9R
PORT WASHINGTON  1840   21     330/  9/ 14 1028.1S
MILWAUKEE LAKESH 1800   22     310/ 11/ 15   N/A
S MID LAKE BUOY  1850   28 42  320/ 21/ 25 1026.1R   7/ 7
KENOSHA   LAKESH 1900   22     330/ 15/ 19 1027.1S
$$

TC  - TEMPERATURE IN CELSIUS
VSB - VISIBILITY IN STATUTE MILES
WCI - WIND CHILL INDEX
HX  - HEAT INDEX




USA.gov is the U.S. government's official web portal to all federal, state and local government web resources and services.